Santa Fe, NM

1:29 AM MDT on August 25, 2019 (GMT -0600)
Santa Fe Municipal

Weather History for KSAF - July, 2019

Change the Weather History Date:

Monday, July 22, 2019

  Actual Average Record
Temperature  
Mean Temperature 74 °F -  
Max Temperature 86 °F 91 °F 99 °F (2018)
Min Temperature 64 °F 54 °F 51 °F (2000)
Cooling Degree Days 9    
Growing Degree Days 24 (Base 50)    
Moisture  
Dew Point 48 °F    
Average Humidity 40    
Maximum Humidity 53    
Minimum Humidity 26    
Precipitation  
Precipitation 0.00 in - - ()
Sea Level Pressure  
Sea Level Pressure 30.05 in    
Wind  
Wind Speed 15 mph (SE)    
Max Wind Speed 22 mph    
Max Gust Speed 31 mph    
Visibility 10 miles    
Events      
Averages and records for this station are not official NWS values.
T = Trace of Precipitation, MM = Missing Value Source: NWS Daily Summary

Daily Weather History Graph

Daily Weather History Graph

Search for Another Location

Airport or City:

Astronomy

Jul. 22, 2019 Rise Set
Actual Time 6:04 AM MDT 8:16 PM MDT
Civil Twilight 5:36 AM MDT 8:45 PM MDT
Nautical Twilight 5:00 AM MDT 9:20 PM MDT
Astronomical Twilight 4:22 AM MDT 9:58 PM MDT
Moon 11:49 PM MDT (7/22) 11:14 AM MDT (7/22)
Length of Visible Light 15h 09m
Length of Day
14h 11m
Waning Gibbous, 72% of the Moon is Illuminated
Jul 22
Waning Gibbous
Jul 24
Last Quarter
Jul 31
New
Aug 7
First Quarter
Aug 15
Full

Hourly Weather History & Observations

Time (MDT) Temp. Dew Point Humidity Pressure Visibility Wind Dir Wind Speed Gust Speed Precip Events Conditions
12:53 AM 72.0 °F 45.0 °F 38% 29.95 in 10.0 mi SSE 19.6 mph - N/A   Partly Cloudy
1:53 AM 71.1 °F 46.0 °F 41% 29.96 in 10.0 mi SE 20.7 mph 27.6 mph N/A   Clear
2:53 AM 70.0 °F 46.9 °F 44% 29.99 in 10.0 mi SE 19.6 mph 27.6 mph N/A   Overcast
3:53 AM 69.1 °F 46.9 °F 45% 29.98 in 10.0 mi SSE 11.5 mph - N/A   Clear
4:53 AM 68.0 °F 46.9 °F 47% 30.01 in 10.0 mi SE 17.3 mph - N/A   Clear
5:53 AM 66.0 °F 46.9 °F 50% 30.04 in 10.0 mi ESE 12.7 mph - N/A   Clear
6:53 AM 64.9 °F 46.9 °F 52% 30.06 in 10.0 mi East 9.2 mph - N/A   Clear
7:53 AM 71.1 °F 46.9 °F 42% 30.04 in 10.0 mi NNE 9.2 mph - N/A   Clear
8:53 AM 73.9 °F 46.9 °F 38% 30.05 in 10.0 mi NNE 5.8 mph - N/A   Clear
9:53 AM 78.1 °F 46.0 °F 32% 30.05 in 10.0 mi NNW 3.5 mph - N/A   Clear
10:53 AM 81.0 °F 46.0 °F 29% 30.05 in 10.0 mi SW 6.9 mph - N/A   Clear
11:53 AM 82.9 °F 46.0 °F 27% 30.05 in 10.0 mi South 19.6 mph 26.5 mph N/A   Clear
12:53 PM 82.9 °F 46.9 °F 28% 30.04 in 10.0 mi South 17.3 mph 31.1 mph N/A   Clear
1:53 PM 84.0 °F 46.0 °F 26% 30.03 in 10.0 mi SSE 11.5 mph 23.0 mph N/A   Partly Cloudy
2:53 PM 81.0 °F 50.0 °F 34% 30.04 in 10.0 mi SSE 17.3 mph - N/A   Overcast
3:53 PM 82.0 °F 48.9 °F 31% 30.01 in 10.0 mi SSE 19.6 mph 29.9 mph N/A   Scattered Clouds
4:53 PM 82.0 °F 48.9 °F 31% 30.01 in 10.0 mi ESE 21.9 mph 27.6 mph N/A   Clear
5:53 PM 81.0 °F 50.0 °F 34% 30.02 in 10.0 mi SE 18.4 mph 26.5 mph N/A   Mostly Cloudy
6:53 PM 77.0 °F 50.0 °F 39% 30.09 in 10.0 mi North 13.8 mph - N/A   Mostly Cloudy
7:53 PM 71.1 °F 51.1 °F 49% 30.11 in 10.0 mi NNE 13.8 mph - 0.00 in   Overcast
8:53 PM 70.0 °F 48.9 °F 47% 30.12 in 10.0 mi NE 4.6 mph - N/A   Mostly Cloudy
9:53 PM 70.0 °F 51.1 °F 51% 30.13 in 10.0 mi SSE 4.6 mph - 0.00 in   Clear
10:53 PM 70.0 °F 51.1 °F 51% 30.14 in 10.0 mi SE 8.1 mph - N/A   Scattered Clouds
11:53 PM 69.1 °F 51.1 °F 53% 30.14 in 10.0 mi SSE 10.4 mph - N/A   Clear